CBERS 1 DEB, 32079

Orbit data source: Space-Track

CBERS 1 DEB, 32079 is space debris in SSO originally from a launch on Thu, 14 Oct 1999 UTC launched from the Taiyaun Space Center, China (TSC). Debris objects in space refer to the collection of defunct objects orbiting the Earth. Examples of debris include non-operational satellites, rocket bodies, and fragments generated from explosions, collisions, or faulty payload assembly.

Loading next visibility...
Identifier
32079, 1999-057QT
Orbit
SSO
Country
Flag of UnknownUnknown / CHBZ
Related business
Manufacturer
Unknown
Mission
Spacecraft
Bus & Motor
Unknown
Mass
Unknown
Launch date (UTC)
1999-10-14 (26 years ago)
Launch vehicle
Unknown
Launch site
Taiyaun Space Center, China (TSC)
Object type
Payload
Rocket body
Debris
Shape & HBR
Unknown shape, 0.1 m
Radar Cross Section
Small (<0.1 m²)

Expand to show TLE details & history
Last TLE update: 8 hours ago

TLE from 8 hours ago
0 CBERS 1 DEB
1 32079U 99057QT  25300.87450184  .00001592  00000-0  47256-3 0  9992
2 32079  98.7649 319.2435 0004557 222.0722 138.0119 14.44692034963908
Epoch: 2025-10-27T20:59Z
TLE epoch observation values (Epoch: 2025-10-27T20:59:16.958Z)
Latitude
-0°
Longitude
-32.04724°
Altitude
748.398 km
Speed
7.479 km/s
True Right ascension
21h 16m 58s
True Declination
0° 00' 00"
Sunlit
Object was in daylight at epoch
Visualization orbit readout
Latitude
Unknown
Longitude
Unknown
Altitude
Unknown
Speed
Unknown
Apparent Right ascension
Unknown
Apparent Declination
Unknown
Sunlit
N/A
Visualization observer readout
Local Sidereal Time
00:12:58
Azimuth
Unknown
Elevation
Unknown
Doppler factor
Unknown
Orbital elements
Apogee altitude
743.41 km
Perigee altitude
736.922 km
Semi-major axis
7,118.303 km
Eccentricity
0.00046
Inclination
98.7649°
RAAN
319.2435°
Arg. of periapsis
222.0722°
True anomaly
138.04682°
Mean anomaly
138.0119°
Eccentric anomaly
138.02936°
Mean motion
3.61392 °/min
Orbital period
99.61 mins
BSTAR
0.00047256
Loading maneuver chart data...
Computing Atmospheric mass density...
Loading historical data...
Loading historical data...
Loading historical data...
Loading historical data...
Loading historical data...
Loading historical data...
Loading historical data...

Documentation

Showing up to 5 results
|